"Pseudo-MPEC" for P11Jpwn

Created 2023 Oct 3 15:22:07 UT using Find_Orb

Click here for an explanation of pseudo-MPECs

 
 Astrometry: 
     P11Jpwn* C2023 09 135co\3D,UXffwd2e:42Astrometryo[Irh)T2=fT)wiFF%ZD25RUSF51
     P11Jpwn  C2023 09 13BsVV+%k/QY8+FVqT9Hw9H#Mm5ogrI):vredacted;:J's;6KN)0NF51
     P11Jpwn  C2023 09 139\\,^ZE-]Mrio9arvUnj%Pdt@i#IyQ5hHtHH'+u[Wd*clickJ#F[F51
     P11Jpwn  C2023 09 13K7;UUiPDlhereSwxpgfa4@Bs;#*ZforaexplanationT`uDkjyFZF51

Station data:
(F51) Pan-STARRS 1, Haleakala  (N20.707234 W156.255910)  US/Hawaii.
   Observers J. Bulger, T. Lowe, A. Schultz, M. Willman. Measurers K.
   Chambers, S. Chastel, T. de Boer, L. Denneau, J. Fairlamb, H. Flewelling,
   M. Huber, C.-C. Lin, E. Magnier, Y. Ramanjooloo, R. Wainscoat, R. Weryk.
   1.8-m Ritchey-Chrétien + CCD.

Orbital elements:  P11Jpwn
   Perihelion 2024 Jan 1.02234 +/- 83.5 TT =  0:32:10 (JD 2460310.52234)
Epoch 2023 Sep 14.0 TT = JDT 2460201.5   Earth MOID: 0.1044   Ve: 0.0920
M 305.85898797 +/- 48               (J2000 ecliptic)             AutoNEOCP
n   0.49660476 +/- 0.398            Peri.   73.74293 +/- 90
a   1.57929089 +/- 0.844            Node    58.24915 +/- 52
e   0.6140052 +/- 0.263             Incl.   32.83224 +/- 14
P   1.98/724.91d           H 19.05  G  0.15   U 12.1  SR
q 0.60959796 +/- 0.639    Q 2.54898381 +/- 40.8
From 4 observations 2023 Sept. 13 (39.6 min); mean residual 0".05
Residuals in arcseconds: 
230913 F51  .02-  .06-    230913 F51  .03+  .08+    
230913 F51  .01+  .05+    230913 F51  .02-  .07-    

Ephemerides (geocentric):
Date (UTC) HH   RA             Dec           delta  r     elong  mag " sig PA
---- --------  ------------   ------------  ------ ------ -----  --- --------
2023 10 03 15  04 04 35.862   -38 58 34.42  .62789 1.3929 115.7 20.3  50d 113
2023 10 03 16  04 04 36.457   -38 59 39.99  .62737 1.3926 115.7 20.3  50d 113
2023 10 03 17  04 04 37.047   -39 00 45.62  .62684 1.3922 115.7 20.3  50d 113
2023 10 03 18  04 04 37.631   -39 01 51.31  .62631 1.3918 115.7 20.3  50d 113
2023 10 03 19  04 04 38.209   -39 02 57.07  .62578 1.3914 115.7 20.3  50d 113
2023 10 03 20  04 04 38.781   -39 04 02.89  .62525 1.3910 115.7 20.3  50d 113
2023 10 03 21  04 04 39.347   -39 05 08.78  .62473 1.3906 115.7 20.3  50d 113
2023 10 03 22  04 04 39.908   -39 06 14.74  .62420 1.3902 115.7 20.3  50d 113
2023 10 03 23  04 04 40.462   -39 07 20.76  .62367 1.3898 115.7 20.3  50d 113
2023 10 04 00  04 04 41.010   -39 08 26.84  .62314 1.3894 115.7 20.3  50d 113
2023 10 04 01  04 04 41.553   -39 09 32.99  .62261 1.3890 115.7 20.3  50d 113
2023 10 04 02  04 04 42.089   -39 10 39.21  .62209 1.3887 115.7 20.3  50d 113
2023 10 04 03  04 04 42.619   -39 11 45.49  .62156 1.3883 115.7 20.3  50d 113
2023 10 04 04  04 04 43.144   -39 12 51.83  .62103 1.3879 115.7 20.3  50d 113
2023 10 04 05  04 04 43.662   -39 13 58.25  .62051 1.3875 115.7 20.3  50d 113
2023 10 04 06  04 04 44.174   -39 15 04.72  .61998 1.3871 115.7 20.3  50d 113
2023 10 04 07  04 04 44.681   -39 16 11.27  .61945 1.3867 115.7 20.3  50d 113
2023 10 04 08  04 04 45.181   -39 17 17.88  .61893 1.3863 115.7 20.3  50d 113
2023 10 04 09  04 04 45.675   -39 18 24.56  .61840 1.3859 115.7 20.3  50d 113
2023 10 04 10  04 04 46.163   -39 19 31.30  .61787 1.3855 115.7 20.3  50d 113
2023 10 04 11  04 04 46.645   -39 20 38.11  .61734 1.3851 115.8 20.3  50d 113
2023 10 04 12  04 04 47.120   -39 21 44.98  .61682 1.3847 115.8 20.3  50d 113
2023 10 04 13  04 04 47.590   -39 22 51.93  .61629 1.3844 115.8 20.3  51d 113
2023 10 04 14  04 04 48.053   -39 23 58.94  .61577 1.3840 115.8 20.3  51d 113
2023 10 04 15  04 04 48.511   -39 25 06.01  .61524 1.3836 115.8 20.3  51d 113
2023 10 04 16  04 04 48.962   -39 26 13.16  .61471 1.3832 115.8 20.3  51d 113
2023 10 04 17  04 04 49.407   -39 27 20.37  .61419 1.3828 115.8 20.3  51d 113
2023 10 04 18  04 04 49.845   -39 28 27.65  .61366 1.3824 115.8 20.3  51d 113
2023 10 04 19  04 04 50.278   -39 29 34.99  .61314 1.3820 115.8 20.3  51d 113
2023 10 04 20  04 04 50.704   -39 30 42.40  .61261 1.3816 115.8 20.3  51d 113
2023 10 04 21  04 04 51.124   -39 31 49.88  .61208 1.3812 115.8 20.3  51d 113
2023 10 04 22  04 04 51.538   -39 32 57.43  .61156 1.3808 115.8 20.3  51d 113
2023 10 04 23  04 04 51.945   -39 34 05.04  .61103 1.3804 115.8 20.3  51d 113
2023 10 05 00  04 04 52.346   -39 35 12.73  .61051 1.3800 115.8 20.3  51d 113
2023 10 05 01  04 04 52.741   -39 36 20.48  .60998 1.3797 115.8 20.3  51d 113
2023 10 05 02  04 04 53.129   -39 37 28.30  .60946 1.3793 115.8 20.3  51d 113
2023 10 05 03  04 04 53.511   -39 38 36.19  .60893 1.3789 115.8 20.3  51d 113
2023 10 05 04  04 04 53.887   -39 39 44.14  .60841 1.3785 115.8 20.3  51d 113
2023 10 05 05  04 04 54.256   -39 40 52.16  .60788 1.3781 115.8 20.3  51d 113
2023 10 05 06  04 04 54.619   -39 42 00.26  .60736 1.3777 115.8 20.3  51d 113
2023 10 05 07  04 04 54.976   -39 43 08.42  .60683 1.3773 115.8 20.3  51d 113
2023 10 05 08  04 04 55.326   -39 44 16.65  .60631 1.3769 115.8 20.3  51d 113
2023 10 05 09  04 04 55.670   -39 45 24.95  .60578 1.3765 115.8 20.3  51d 113
2023 10 05 10  04 04 56.007   -39 46 33.31  .60526 1.3761 115.8 20.3  51d 113
2023 10 05 11  04 04 56.337   -39 47 41.75  .60473 1.3757 115.8 20.3  51d 113
2023 10 05 12  04 04 56.662   -39 48 50.26  .60421 1.3753 115.8 20.3  51d 113
2023 10 05 13  04 04 56.979   -39 49 58.83  .60368 1.3749 115.8 20.3  51d 113
2023 10 05 14  04 04 57.291   -39 51 07.48  .60316 1.3745 115.8 20.2  51d 113